Flag for Poland Weather past 2 weeks in Jastrzębie Zdrój, Poland

Now
55 °F

Overcast.


Feels Like: 55 °F
Forecast: 41 / 51 °F
Wind: 2 mph from Southwest

Location: Ostrava / Mosnov

Current Time: Oct 21, 2014 at 8:47:34 PM

Latest Report: Oct 21, 2014 at 8:00 PM


Visibility: 16 mi

Pressure: 29.70 "Hg

Humidity: 74%

Dew point: 47 °F

Location of Jastrzębie ZdrójLocation

Historic Weather in Jastrzębie Zdrój — Graph

°F

Jastrzębie Zdrój temperature yesterday

Maximum temperature yesterday: 60 °F (at 3:00 PM)
Minimum temperature yesterday: 53 °F (at 10:11 PM)
Average temperature yesterday: 56 °F

Past Weeks' High & Low Weather Summary

 TemperatureHumidityPressure
High71 °F (Oct 9, 2:00 PM)100% (Oct 11, 2:00 AM)30.36 "Hg (Oct 11, 2:00 AM)
Low40 °F (Oct 7, 7:00 AM)56% (Oct 9, 2:00 PM)29.73 "Hg (Oct 21, 7:00 PM)
Average56 °F85%29.98 "Hg
* Reported Oct 6 7:00 PM — Oct 21 7:00 PM, Jastrzębie Zdrój, Weather by CustomWeather, © 2014

Note: Actual official high and low records may vary slightly from our data, if they occured in-between our weather recording intervals... More about our weather records

Advertising

Jastrzębie Zdrój weather history for previous 24 hours

 ConditionsComfort  
Time TempWeatherWind HumidityBarometerVisibility
7:00 PM
Oct 21
54 °FPassing clouds.3 mph71%29.73 "Hg16 mi
6:00 PM56 °FPassing clouds.3 mph66%29.74 "Hg19 mi
5:00 PM57 °FScattered clouds.6 mph63%29.77 "Hg22 mi
4:00 PM59 °FScattered clouds.7 mph62%29.78 "Hg25 mi
3:00 PM60 °FScattered clouds.8 mph59%29.80 "Hg25 mi
2:00 PM60 °FScattered clouds.7 mph61%29.82 "Hg25 mi
1:00 PM60 °FScattered clouds.6 mph62%29.84 "Hg25 mi
12:00 PM58 °FScattered clouds.6 mph68%29.86 "Hg19 mi
11:00 AM57 °FScattered clouds.6 mph69%29.88 "Hg12 mi
10:00 AM56 °FScattered clouds.5 mph73%29.89 "Hg11 mi
9:00 AM53 °FPartly sunny.5 mph82%29.89 "Hg7 mi
8:00 AM50 °FFog.6 mph94%29.90 "Hg5 mi
7:00 AM49 °FOvercast.6 mph96%29.90 "Hg7 mi
6:00 AM50 °FOvercast.6 mph97%29.90 "Hg7 mi
5:00 AM51 °FOvercast.5 mph97%29.90 "Hg7 mi
4:00 AM53 °FOvercast.5 mph97%29.90 "Hg7 mi
3:00 AM53 °FOvercast.5 mph97%29.92 "Hg12 mi
2:00 AM52 °FPassing clouds.3 mph96%29.93 "Hg12 mi
1:00 AM54 °FOvercast.2 mph96%29.93 "Hg12 mi
12:00 AM53 °FOvercast.3 mph95%29.95 "Hg12 mi
11:00 PM
Oct 20
53 °FOvercast.1 mph97%29.96 "Hg12 mi
10:11 PM53 °FOvercast.5 mph95%29.96 "Hg12 mi
9:00 PM55 °FOvercast.5 mph94%29.97 "Hg12 mi
8:00 PM56 °FOvercast.6 mph91%29.97 "Hg12 mi
Weather by CustomWeather, © 2014

See weather overviewHow to use our weather pages